CW8198 Weather Reports


time (UTC)temp
C
wind
direction
speed
KPH
gust
KPH
rain 1hr
cm
rain 24hr
cm
rain mn
cm
humidity
%
barometer
mb
20260510210505 22 11 4.8 16.1 0.00 0.00 0.00 36 1019.9
20260510210006 22 295 4.8 16.1 0.00 0.00 0.00 34 1019.9
20260510205505 22 252 6.4 20.9 0.00 0.00 0.00 34 1019.9
20260510204504 23 249 4.8 14.5 0.00 0.00 0.00 36 1020.0
20260510204004 23 346 6.4 14.5 0.00 0.00 0.00 30 1020.1
20260510203504 23 9 6.4 14.5 0.00 0.00 0.00 32 1020.0
20260510201002 23 265 9.7 24.1 0.00 0.00 0.00 31 1020.2
20260510200001 24 236 9.7 24.1 0.00 0.00 0.00 30 1020.2
20260510195501 24 257 12.9 24.1 0.00 0.00 0.00 32 1020.3
20260510195001 23 287 6.4 17.7 0.00 0.00 0.00 33 1020.5
20260510194500 23 273 9.7 17.7 0.00 0.00 0.00 29 1020.5
20260510194000 23 303 4.8 22.5 0.00 0.00 0.00 36 1020.6
20260510192959 23 237 8.0 19.3 0.00 0.00 0.00 32 1020.7
20260510192459 23 289 11.3 19.3 0.00 0.00 0.00 33 1021.0
20260510191958 23 265 6.4 29.0 0.00 0.00 0.00 36 1021.1
20260510191459 23 282 6.4 29.0 0.00 0.00 0.00 39 1021.1
20260510190958 22 340 9.7 22.5 0.00 0.00 0.00 33 1021.0
20260510190458 22 334 8.0 19.3 0.00 0.00 0.00 32 1021.1
20260510185958 22 257 4.8 17.7 0.00 0.00 0.00 33 1021.1
20260510185456 22 275 9.7 17.7 0.00 0.00 0.00 32 1021.3
20260510184957 22 250 3.2 17.7 0.00 0.00 0.00 32 1021.4
20260510184456 22 259 6.4 16.1 0.00 0.00 0.00 37 1021.4
20260510183955 22 259 4.8 16.1 0.00 0.00 0.00 36 1021.4
20260510183455 22 196 4.8 16.1 0.00 0.00 0.00 31 1021.3
20260510182955 22 291 3.2 20.9 0.00 0.00 0.00 40 1021.4
20260510182455 22 286 8.0 20.9 0.00 0.00 0.00 35 1021.6
20260510181955 22 301 9.7 24.1 0.00 0.00 0.00 40 1021.6
20260510181455 22 346 6.4 24.1 0.00 0.00 0.00 37 1021.7
20260510180453 21 289 4.8 17.7 0.00 0.00 0.00 39 1021.7
20260510175953 21 236 4.8 19.3 0.00 0.00 0.00 36 1021.7
20260510175453 21 217 9.7 19.3 0.00 0.00 0.00 31 1021.9
20260510174952 21 243 9.7 20.9 0.00 0.00 0.00 36 1021.9
20260510173950 20 317 6.4 16.1 0.00 0.00 0.00 38 1022.1
20260510173453 20 296 4.8 20.9 0.00 0.00 0.00 34 1022.0
20260510172950 20 178 3.2 20.9 0.00 0.00 0.00 35 1022.0
20260510172450 20 247 8.0 16.1 0.00 0.00 0.00 35 1022.1
20260510171951 20 302 3.2 19.3 0.00 0.00 0.00 43 1022.1
20260510171449 20 240 9.7 19.3 0.00 0.00 0.00 33 1022.1
20260510170950 20 325 3.2 11.3 0.00 0.00 0.00 41 1022.1
20260510170449 20 346 3.2 14.5 0.00 0.00 0.00 40 1022.2
20260510165948 19 293 4.8 14.5 0.00 0.00 0.00 42 1022.3
20260510165449 18 244 6.4 16.1 0.00 0.00 0.00 36 1022.4
20260510164948 19 223 9.7 19.3 0.00 0.00 0.00 35 1022.4
20260510164447 20 219 11.3 19.3 0.00 0.00 0.00 35 1022.4
20260510163947 20 284 6.4 12.9 0.00 0.00 0.00 33 1022.4
20260510163447 20 9 3.2 14.5 0.00 0.00 0.00 39 1022.4
20260510162947 20 246 8.0 14.5 0.00 0.00 0.00 37 1022.3
20260510162446 19 273 4.8 16.1 0.00 0.00 0.00 36 1022.2
20260510160945 19 309 1.6 9.7 0.00 0.00 0.00 41 1022.3
20260510160445 18 250 4.8 11.3 0.00 0.00 0.00 37 1022.2
20260510155945 18 51 4.8 11.3 0.00 0.00 0.00 37 1022.3
20260510155445 18 265 3.2 14.5 0.00 0.00 0.00 40 1022.4
20260510154944 18 270 6.4 14.5 0.00 0.00 0.00 40 1022.4
20260510154444 17 221 1.6 8.0 0.00 0.00 0.00 40 1022.4
20260510153943 17 200 1.6 12.9 0.00 0.00 0.00 37 1022.4
20260510153443 17 51 4.8 12.9 0.00 0.00 0.00 39 1022.5
20260510151943 16 226 6.4 12.9 0.00 0.00 0.00 37 1022.3
20260510151441 16 225 4.8 11.3 0.00 0.00 0.00 39 1022.3
20260510150941 16 178 6.4 11.3 0.00 0.00 0.00 39 1022.3
20260510150436 16 123 4.8 11.3 0.00 0.00 0.00 40 1022.3
20260510145935 16 133 3.2 11.3 0.00 0.00 0.00 40 1022.3
20260510145435 16 265 4.8 11.3 0.00 0.00 0.00 41 1022.3
20260510144934 16 164 3.2 11.3 0.00 0.00 0.00 43 1022.2
20260510144433 15 137 4.8 11.3 0.00 0.00 0.00 43 1022.2
20260510143933 15 162 3.2 9.7 0.00 0.00 0.00 44 1022.2
20260510143432 15 193 3.2 9.7 0.00 0.00 0.00 42 1022.2
20260510142934 15 173 4.8 8.0 0.00 0.00 0.00 44 1022.1
20260510142432 14 137 1.6 6.4 0.00 0.00 0.00 46 1022.1
20260510141934 14 232 3.2 6.4 0.00 0.00 0.00 47 1022.0
20260510141432 13 126 1.6 4.8 0.00 0.00 0.00 49 1021.9
20260510135931 11 205 0.0 3.2 0.00 0.00 0.00 60 1021.8
20260510134430 10 34 1.6 4.8 0.00 0.00 0.00 71 1021.8
20260510133930 8 325 1.6 4.8 0.00 0.00 0.00 74 1021.9
20260510133429 8 9 1.6 4.8 0.00 0.00 0.00 76 1021.9
20260510132930 7 309 3.2 6.4 0.00 0.00 0.00 78 1021.8
20260510132430 6 336 3.2 6.4 0.00 0.00 0.00 80 1021.7
20260510131928 6 336 3.2 4.8 0.00 0.00 0.00 82 1021.8
20260510131428 5 9 1.6 4.8 0.00 0.00 0.00 82 1021.8
20260510130928 5 265 1.6 4.8 0.00 0.00 0.00 82 1021.8
20260510130428 5 309 1.6 4.8 0.00 0.00 0.00 83 1021.5
20260510125929 4 9 1.6 4.8 0.00 0.00 0.00 84 1021.5
20260510125428 4 341 1.6 4.8 0.00 0.00 0.00 84 1021.5
20260510124927 3 9 1.6 4.8 0.00 0.00 0.00 85 1021.6
20260510124426 3 319 1.6 3.2 0.00 0.00 0.00 85 1021.6
20260510123925 3 325 0.0 1.6 0.00 0.00 0.00 85 1021.6
20260510123426 3 51 0.0 1.6 0.00 0.00 0.00 85 1021.3
20260510122925 3 238 0.0 3.2 0.00 0.00 0.00 85 1021.3
20260510122419 3 9 0.0 3.2 0.00 0.00 0.00 85 1021.2
20260510121422 2 334 1.6 3.2 0.00 0.00 0.00 84 1021.3
20260510120919 2 325 1.6 3.2 0.00 0.00 0.00 85 1021.2
20260510120417 2 17 1.6 3.2 0.00 0.00 0.00 84 1021.3
20260510115917 2 238 0.0 1.6 0.00 0.00 0.00 84 1021.2
20260510115416 2 153 0.0 1.6 0.00 0.00 0.00 84 1021.2
20260510114916 2 265 0.0 3.2 0.00 0.00 0.00 84 1021.1
20260510114412 2 9 1.6 3.2 0.00 0.00 0.00 84 1021.0
20260510113905 2 51 0.0 1.6 0.00 0.00 0.00 83 1021.2
20260510113407 2 265 0.0 1.6 0.00 0.00 0.00 83 1021.1
20260510112406 2 137 0.0 1.6 0.00 0.00 0.00 83 1021.0
20260510111404 2 341 1.6 3.2 0.00 0.00 0.00 83 1020.9
20260510110904 2 309 1.6 1.6 0.00 0.00 0.00 82 1021.0
20260510110403 2 9 0.0 1.6 0.00 0.00 0.00 82 1021.0
20260510105904 2 325 0.0 1.6 0.00 0.00 0.00 82 1021.0
20260510104902 2 108 0.0 3.2 0.00 0.00 0.00 82 1020.8
20260510104352 2 137 1.6 3.2 0.00 0.00 0.00 81 1020.8
20260510103852 2 129 1.6 3.2 0.00 0.00 0.00 81 1020.8
20260510102851 2 34 1.6 1.6 0.00 0.00 0.00 80 1020.9
20260510102347 3 309 0.0 1.6 0.00 0.00 0.00 80 1020.7
20260510101846 3 265 0.0 1.6 0.00 0.00 0.00 80 1020.6
20260510101335 3 178 0.0 1.6 0.00 0.00 0.00 80 1020.4
20260510100836 3 205 0.0 1.6 0.00 0.00 0.00 80 1020.3
20260510100335 3 178 0.0 1.6 0.00 0.00 0.00 80 1020.4
20260510095834 3 93 1.6 3.2 0.00 0.00 0.00 80 1020.3
20260510095334 3 129 1.6 3.2 0.00 0.00 0.00 80 1020.3
20260510094333 3 9 0.0 1.6 0.00 0.00 0.00 79 1020.0
20260510093832 3 51 0.0 1.6 0.00 0.00 0.00 79 1019.9
20260510093334 3 221 1.6 1.6 0.00 0.00 0.00 79 1019.9
20260510092332 3 309 1.6 3.2 0.00 0.00 0.00 78 1019.7
20260510091832 3 334 1.6 3.2 0.00 0.00 0.00 78 1019.6
20260510090831 3 334 1.6 3.2 0.00 0.00 0.00 77 1019.7
20260510090332 4 291 0.0 3.2 0.00 0.00 0.00 77 1019.4
20260510085831 4 9 1.6 3.2 0.00 0.00 0.00 77 1019.3
20260510085330 4 9 0.0 1.6 0.00 0.00 0.00 77 1019.3
20260510084832 4 325 0.0 1.6 0.00 0.00 0.00 75 1019.3
20260510084330 4 319 1.6 1.6 0.00 0.00 0.00 74 1019.6
20260510083830 4 309 0.0 1.6 0.00 0.00 0.00 74 1019.4
20260510082829 4 137 0.0 3.2 0.00 0.00 0.00 73 1019.4
20260510082318 4 238 0.0 1.6 0.00 0.00 0.00 72 1019.2
20260510081818 5 34 0.0 1.6 0.00 0.00 0.00 72 1019.1
20260510081318 5 34 0.0 6.4 0.00 0.00 0.00 71 1019.2
20260510080818 5 119 3.2 6.4 0.00 0.00 0.00 70 1019.1
20260510080318 5 171 1.6 3.2 0.00 0.00 0.00 69 1019.2
20260510075817 5 178 0.0 1.6 0.00 0.00 0.00 69 1019.1
20260510075317 5 325 0.0 1.6 0.00 0.00 0.00 68 1019.1
20260510074816 5 334 0.0 1.6 0.00 0.00 0.00 69 1019.1
20260510074311 5 9 0.0 1.6 0.00 0.00 0.00 68 1018.9
20260510073811 6 162 0.0 1.6 0.00 0.00 0.00 67 1018.9
20260510073312 6 265 0.0 3.2 0.00 0.00 0.00 67 1018.7
20260510072802 6 9 0.0 3.2 0.00 0.00 0.00 66 1018.7
20260510072300 6 9 1.6 3.2 0.00 0.00 0.00 65 1018.6
20260510071259 6 334 0.0 1.6 0.00 0.00 0.00 65 1018.6
20260510070759 7 108 0.0 1.6 0.00 0.00 0.00 64 1018.7
20260510070258 7 334 0.0 1.6 0.00 0.00 0.00 63 1018.6
20260510065743 7 319 1.6 3.2 0.00 0.00 0.00 62 1018.7
20260510065242 7 309 0.0 3.2 0.00 0.00 0.00 62 1018.8
20260510064742 7 162 1.6 3.2 0.00 0.00 0.00 60 1018.7
20260510064242 8 265 0.0 1.6 0.00 0.00 0.00 59 1018.6
20260510063743 8 51 0.0 1.6 0.00 0.00 0.00 58 1018.6
20260510063242 8 298 0.0 3.2 0.00 0.00 0.00 58 1018.5
20260510062743 8 93 1.6 3.2 0.00 0.00 0.00 58 1018.6
20260510062241 8 93 0.0 3.2 0.00 0.00 0.00 58 1018.7
20260510061741 8 22 0.0 1.6 0.00 0.00 0.00 58 1018.7
20260510060735 8 291 0.0 1.6 0.00 0.00 0.00 57 1018.5
20260510055730 9 309 0.0 3.2 0.00 0.00 0.00 55 1018.0
20260510055230 9 9 1.6 3.2 0.00 0.00 0.00 55 1017.9
20260510054730 9 9 0.0 4.8 0.00 0.00 0.00 55 1017.7
20260510054231 9 309 1.6 6.4 0.00 0.00 0.00 55 1017.7
20260510053729 9 9 3.2 6.4 0.00 0.00 0.00 54 1017.5
20260510050727 10 9 4.8 8.0 0.00 0.00 0.00 54 1016.9
20260510050227 10 9 3.2 6.4 0.00 0.00 0.00 53 1016.9
20260510045726 10 19 4.8 8.0 0.00 0.00 0.00 52 1016.8
20260510045227 11 9 3.2 8.0 0.00 0.00 0.00 53 1016.8
20260510044725 11 334 3.2 6.4 0.00 0.00 0.00 52 1016.7
20260510044225 11 341 3.2 4.8 0.00 0.00 0.00 51 1016.6
20260510043726 11 16 3.2 6.4 0.00 0.00 0.00 52 1016.6
20260510043225 11 9 3.2 6.4 0.00 0.00 0.00 50 1016.5
20260510042724 12 24 3.2 6.4 0.00 0.00 0.00 49 1016.5
20260510042224 12 342 3.2 6.4 0.00 0.00 0.00 48 1016.3
20260510041724 12 325 1.6 6.4 0.00 0.00 0.00 51 1016.2
20260510041224 12 309 1.6 8.0 0.00 0.00 0.00 47 1015.9
20260510040723 12 346 3.2 8.0 0.00 0.00 0.00 49 1016.0
20260510040225 12 11 3.2 8.0 0.00 0.00 0.00 49 1015.9
20260510035223 12 341 3.2 6.4 0.00 0.00 0.00 51 1015.8
20260510034723 13 340 3.2 8.0 0.00 0.00 0.00 51 1015.7
20260510033723 13 336 3.2 8.0 0.00 0.00 0.00 47 1015.5
20260510032721 13 31 4.8 9.7 0.00 0.00 0.00 47 1015.2
20260510032221 13 319 4.8 8.0 0.00 0.00 0.00 46 1015.3
20260510031720 14 13 4.8 14.5 0.00 0.00 0.00 46 1015.1
20260510030721 14 344 3.2 8.0 0.00 0.00 0.00 48 1014.9
20260510030221 14 30 3.2 8.0 0.00 0.00 0.00 47 1014.8
20260510025720 14 9 3.2 14.5 0.00 0.00 0.00 45 1014.7
20260510025219 14 337 4.8 14.5 0.00 0.00 0.00 48 1014.7
20260510024719 14 9 6.4 14.5 0.00 0.00 0.00 45 1014.5
20260510024219 15 346 3.2 9.7 0.00 0.00 0.00 44 1014.3
20260510023718 15 338 4.8 8.0 0.00 0.00 0.00 43 1014.2
20260510023218 15 346 4.8 8.0 0.00 0.00 0.00 43 1014.1
20260510021216 16 9 1.6 4.8 0.00 0.00 0.00 39 1013.6
20260510020719 16 19 1.6 4.8 0.00 0.00 0.00 40 1013.6
20260510020216 16 319 3.2 6.4 0.00 0.00 0.00 40 1013.5
20260510015716 16 341 1.6 8.0 0.00 0.00 0.00 40 1013.4
20260510015215 16 344 3.2 8.0 0.00 0.00 0.00 39 1013.3
20260510014215 17 338 3.2 8.0 0.00 0.00 0.00 39 1013.0
20260510013214 17 30 1.6 6.4 0.00 0.00 0.00 39 1012.7
20260510012206 18 9 3.2 9.7 0.00 0.00 0.00 38 1012.5
20260510011706 18 348 6.4 11.3 0.00 0.00 0.00 36 1012.3
20260510011207 18 23 3.2 11.3 0.00 0.00 0.00 38 1012.2
20260510010705 19 40 3.2 11.3 0.00 0.00 0.00 38 1012.1
20260510010206 19 34 6.4 12.9 0.00 0.00 0.00 37 1012.1
20260510005704 19 33 6.4 12.9 0.00 0.00 0.00 39 1012.0
20260510005203 19 329 4.8 12.9 0.00 0.00 0.00 38 1011.9
20260510004704 20 39 4.8 16.1 0.00 0.00 0.00 38 1011.9
20260510004203 20 54 6.4 16.1 0.00 0.00 0.00 40 1011.8
20260510003702 20 38 4.8 16.1 0.00 0.00 0.00 44 1011.7
20260510003202 20 9 8.0 16.1 0.00 0.00 0.00 43 1011.7
20260510002702 20 332 6.4 11.3 0.00 0.00 0.00 42 1011.6
20260510002200 20 16 4.8 11.3 0.00 0.00 0.00 41 1011.6
20260510001700 20 13 6.4 12.9 0.00 0.00 0.00 42 1011.5
20260510001200 20 51 4.8 14.5 0.00 0.00 0.00 42 1011.6
20260510000700 20 11 4.8 14.5 0.00 0.00 0.00 42 1011.6
20260510000200 19 38 6.4 14.5 0.00 0.00 0.00 46 1011.6
20260509235659 19 344 6.4 14.5 0.00 0.00 0.00 45 1011.5
20260509235159 19 342 6.4 14.5 0.00 0.00 0.00 47 1011.5
20260509234659 19 313 6.4 14.5 0.00 0.00 0.00 46 1011.4
20260509233657 20 346 8.0 19.3 0.00 0.00 0.00 48 1011.5
20260509233156 20 344 8.0 19.3 0.00 0.00 0.00 46 1011.5
20260509232656 20 344 8.0 16.1 0.00 0.00 0.00 47 1011.4
20260509232156 20 350 6.4 14.5 0.00 0.00 0.00 50 1011.4
20260509231645 20 23 6.4 17.7 0.00 0.00 0.00 49 1011.3
20260509230645 20 342 8.0 16.1 0.00 0.00 0.00 48 1011.3
20260509230145 20 18 9.7 17.7 0.00 0.00 0.00 48 1011.3
20260509223643 20 9 8.0 17.7 0.00 0.00 0.00 49 1011.3
20260509222642 20 9 8.0 17.7 0.00 0.00 0.00 48 1011.2
20260509222143 20 350 8.0 17.7 0.00 0.00 0.00 47 1011.2
20260509221642 20 325 9.7 24.1 0.00 0.00 0.00 48 1011.1
20260509221143 20 344 8.0 24.1 0.00 0.00 0.00 50 1011.1
20260509220642 20 327 9.7 20.9 0.00 0.00 0.00 49 1011.1
20260509220143 20 9 9.7 20.9 0.00 0.00 0.00 47 1011.0
20260509215643 20 317 9.7 20.9 0.00 0.00 0.00 49 1011.0
20260509214641 20 346 6.4 14.5 0.00 0.00 0.00 48 1010.8
20260509214142 20 336 6.4 16.1 0.00 0.00 0.00 47 1010.8
20260509213641 20 347 8.0 17.7 0.00 0.00 0.00 47 1010.8
20260509213141 20 337 6.4 25.7 0.00 0.00 0.00 48 1010.8
20260509212640 20 9 11.3 25.7 0.00 0.00 0.00 48 1010.9
20260509212140 20 342 11.3 29.0 0.00 0.00 0.00 48 1010.6
20260509211640 20 341 16.1 29.0 0.00 0.00 0.00 46 1010.6
20260509211139 20 339 14.5 27.4 0.00 0.00 0.00 45 1010.6
20260509210639 21 323 16.1 25.7 0.00 0.00 0.00 45 1010.6